Weather in Podtesovo

Russia / Krasnoyarsk Krai     58°36′13″N   92°05′27″E
temp.,
°C
wind,
m/s
gust,
m/s
humid.,
%
clouds,
%
prec.,
mm/h
press.,
hPa
HPBL,
m
17 may, tue
tue1701:00+13se117242 0.0 101010
04:00+13se2267100 0.0 100939
07:00+14ene1164100 0.1 101065
10:00+21s4646100 0.0 1007742
13:00+18wsw3964100 0.3 1008688
16:00+25ssw3940100 0.4 10062537
19:00+23s114977 0.4 100460
22:00+17nw5127598 0.6 1006468
18 may, wed
wed1801:00+14se37885 0.9 1004135
04:00+13s228495 0.3 100418
07:00+17ssw3127026 0.4 1004529
10:00+21w6115358 0.1 10051672
13:00+23w6113242 0.2 10063201
16:00+24wnw61226100 0.0 10053906
19:00+20nw49440 0.0 10081585
22:00+14nw25643 0.0 101191
19 may, thu
thu1901:00+12nw11730 0.0 101212
04:00+10ssw008097 0.0 101310
07:00+14e116681 0.0 1013139
10:00+20se234484 0.0 10121175
13:00+23sse233419 0.0 10091869
16:00+24se3432100 0.0 10061675
19:00+23e483972 0.0 1004466
22:00+17sse3761100 0.3 1003167
20 may, fri
fri2001:00+15sse2686100 1.3 1003141
04:00+15s269192 0.2 1003246
07:00+16wsw51263100 0.3 10061264
10:00+18sw713431 0.1 10062170
13:00+17sw71350100 0.1 10081816
16:00+17wsw51252100 0.1 10081986
19:00+18wsw31046100 0.3 10082245
22:00+13ssw2757100 0.0 1009128
21 may, sat
sat2101:00+13sw41360100 0.1 1010383
04:00+12sw3964100 0.0 1010267
07:00+13sw3959100 0.0 1011503
10:00+15w31052100 0.0 10111723
13:00+13e1170100 0.1 101050
16:00+21wnw274462 0.0 10091291
19:00+20ene235262 0.0 1007144
22:00+14se12738 0.0 100826